GW4197 Weather Reports


Display with metric or nautical units.
time (UTC)temp
F
wind
direction
speed
MPH
gust
MPH
rain 1hr
in
rain 24hr
in
rain mn
in
humidity
%
barometer
mb
20260507211549 54 195 8.0 14.0 0.00 0.00 0.00 94 1000.9
20260507211031 54 122 6.0 16.0 0.00 0.00 0.00 94 1000.9
20260507210532 54 116 9.0 18.0 0.00 0.00 0.00 94 1001.1
20260507210050 54 60 8.0 18.0 0.00 0.00 0.00 94 1001.0
20260507205533 54 127 8.0 15.0 0.00 0.00 0.00 94 1001.1
20260507205031 54 118 7.0 15.0 0.00 0.00 0.00 94 1001.1
20260507204545 54 114 7.0 16.0 0.00 0.00 0.00 94 1001.0
20260507204031 54 169 6.0 16.0 0.00 0.00 0.00 94 1000.8
20260507203533 54 128 6.0 16.0 0.00 0.00 0.00 94 1000.9
20260507203046 54 136 6.0 16.0 0.00 0.00 0.00 94 1000.8
20260507202531 54 109 7.0 16.0 0.00 0.00 0.00 95 1000.9
20260507202031 54 96 8.0 15.0 0.00 0.00 0.00 95 1001.0
20260507201547 54 198 6.0 15.0 0.00 0.00 0.00 95 1001.0
20260507201034 54 109 8.0 15.0 0.00 0.00 0.00 95 1000.3
20260507200531 54 143 8.0 16.0 0.00 0.00 0.00 95 1000.3
20260507200054 54 127 7.0 16.0 0.00 0.00 0.00 95 1000.3
20260507195532 54 129 7.0 16.0 0.00 0.00 0.00 95 1000.5
20260507195034 54 150 8.0 15.0 0.00 0.00 0.00 95 1000.8
20260507194545 54 103 6.0 14.0 0.00 0.00 0.00 95 1000.5
20260507194030 54 118 7.0 14.0 0.00 0.00 0.00 95 1000.8
20260507193531 54 128 6.0 14.0 0.00 0.00 0.00 95 1001.1
20260507193051 54 122 7.0 14.0 0.00 0.00 0.00 94 1001.2
20260507192531 54 127 4.0 13.0 0.00 0.00 0.00 95 1001.4
20260507192031 54 125 7.0 14.0 0.00 0.00 0.00 95 1001.7
20260507191547 55 161 7.0 14.0 0.00 0.00 0.00 95 1002.0
20260507191031 55 167 8.0 18.0 0.00 0.00 0.00 95 1002.4
20260507190531 55 152 6.0 18.0 0.00 0.00 0.00 95 1002.6
20260507190051 55 148 8.0 18.0 0.00 0.00 0.00 95 1002.7
20260507185531 55 140 7.0 16.0 0.00 0.00 0.00 95 1002.8
20260507185033 55 131 5.0 14.0 0.00 0.00 0.00 95 1002.9
20260507184543 55 151 6.0 14.0 0.00 0.00 0.00 95 1003.0
20260507184030 55 127 8.0 14.0 0.00 0.00 0.00 95 1002.9
20260507183531 55 139 5.0 13.0 0.00 0.00 0.00 95 1002.8
20260507183042 55 129 6.0 15.0 0.00 0.00 0.00 95 1002.9
20260507182532 55 136 8.0 16.0 0.00 0.00 0.00 95 1003.3
20260507182032 55 172 6.0 16.0 0.00 0.00 0.00 94 1003.4
20260507181547 55 129 6.0 16.0 0.00 0.00 0.00 94 1003.3
20260507181032 55 216 8.0 14.0 0.00 0.00 0.00 94 1003.4
20260507180535 55 136 5.0 13.0 0.00 0.00 0.00 94 1003.3
20260507180048 55 126 6.0 13.0 0.00 0.00 0.00 94 1003.5
20260507175533 55 142 6.0 14.0 0.00 0.00 0.00 94 1003.6
20260507175031 55 182 5.0 14.0 0.00 0.00 0.00 94 1003.8
20260507174554 55 149 6.0 17.0 0.00 0.00 0.00 94 1003.9
20260507174032 55 126 8.0 17.0 0.00 0.00 0.00 93 1004.0
20260507173531 55 210 7.0 16.0 0.00 0.00 0.00 93 1004.1
20260507173044 55 162 7.0 16.0 0.00 0.00 0.00 93 1004.2
20260507172531 56 149 9.0 16.0 0.00 0.00 0.00 92 1004.1
20260507172031 56 146 6.0 18.0 0.00 0.00 0.00 92 1003.8
20260507171549 56 198 9.0 25.0 0.00 0.00 0.00 91 1003.5
20260507171031 57 150 9.0 25.0 0.00 0.00 0.00 91 1003.7
20260507170533 57 136 9.0 21.0 0.00 0.00 0.00 89 1003.6
20260507170050 58 132 11.0 21.0 0.00 0.00 0.00 88 1003.3
20260507165532 58 191 9.0 25.0 0.00 0.00 0.00 87 1003.4
20260507165031 59 131 10.0 25.0 0.00 0.00 0.00 86 1003.2
20260507164547 59 166 14.0 25.0 0.00 0.00 0.00 85 1003.1
20260507164032 59 134 12.0 31.0 0.00 0.00 0.00 84 1003.1
20260507163532 60 159 14.0 31.0 0.00 0.00 0.00 84 1003.0
20260507163045 60 161 12.0 29.0 0.00 0.00 0.00 84 1002.9
20260507162531 60 150 14.0 28.0 0.00 0.00 0.00 83 1003.1
20260507162033 60 125 12.0 27.0 0.00 0.00 0.00 83 1003.2
20260507161554 60 148 14.0 28.0 0.00 0.00 0.00 83 1003.3
20260507161033 60 169 13.0 28.0 0.00 0.00 0.00 83 1003.1
20260507160532 60 159 12.0 27.0 0.00 0.00 0.00 82 1003.4
20260507160042 61 81 14.0 27.0 0.00 0.00 0.00 82 1003.4
20260507155530 61 139 15.0 27.0 0.00 0.00 0.00 82 1003.5
20260507155031 61 159 13.0 26.0 0.00 0.00 0.00 81 1003.7
20260507154544 61 152 11.0 26.0 0.00 0.00 0.00 82 1003.9
20260507154031 61 124 11.0 30.0 0.00 0.00 0.00 82 1004.0
20260507153531 61 122 13.0 30.0 0.00 0.00 0.00 81 1003.9
20260507153107 61 172 15.0 28.0 0.00 0.00 0.00 81 1004.0
20260507152531 61 131 11.0 23.0 0.00 0.00 0.00 81 1004.1
20260507152032 61 160 10.0 29.0 0.00 0.00 0.00 81 1004.1
20260507151551 61 129 14.0 29.0 0.00 0.00 0.00 80 1004.4
20260507151031 61 180 14.0 29.0 0.00 0.00 0.00 81 1004.6
20260507150531 61 162 14.0 29.0 0.00 0.00 0.00 80 1004.4
20260507150050 61 135 13.0 31.0 0.00 0.00 0.00 80 1004.7
20260507145532 61 116 16.0 31.0 0.00 0.00 0.00 80 1004.7
20260507145031 61 179 15.0 31.0 0.00 0.00 0.00 80 1004.9
20260507144541 61 133 15.0 29.0 0.00 0.00 0.00 79 1005.1
20260507144031 61 181 12.0 24.0 0.00 0.00 0.00 79 1005.3
20260507143531 61 121 12.0 24.0 0.00 0.00 0.00 80 1005.0
20260507143052 61 124 11.0 31.0 0.00 0.00 0.00 80 1005.2
20260507142534 61 145 13.0 31.0 0.00 0.00 0.00 80 1005.4
20260507142031 61 113 14.0 28.0 0.00 0.00 0.00 81 1005.3
20260507141547 61 141 12.0 27.0 0.00 0.00 0.00 81 1005.5
20260507141031 61 123 12.0 24.0 0.00 0.00 0.00 82 1005.9
20260507140533 61 134 12.0 28.0 0.00 0.00 0.00 82 1005.8
20260507140054 61 127 15.0 29.0 0.00 0.00 0.00 83 1005.6
20260507135532 61 155 11.0 29.0 0.00 0.00 0.00 84 1005.6
20260507135033 60 214 11.0 26.0 0.00 0.00 0.00 84 1005.9
20260507134543 60 149 10.0 28.0 0.00 0.00 0.00 84 1005.8
20260507134031 60 128 15.0 29.0 0.00 0.00 0.00 84 1005.9
20260507133533 60 172 12.0 29.0 0.00 0.00 0.00 84 1005.8
20260507133047 60 134 13.0 27.0 0.00 0.00 0.00 83 1005.7
20260507132533 60 127 14.0 27.0 0.00 0.00 0.00 83 1005.6
20260507132031 60 158 13.0 30.0 0.00 0.00 0.00 83 1005.7
20260507131546 60 171 13.0 30.0 0.00 0.00 0.00 83 1005.7
20260507131033 60 119 10.0 28.0 0.00 0.00 0.00 83 1006.1
20260507130532 60 120 10.0 23.0 0.00 0.00 0.00 83 1006.5
20260507130059 60 155 10.0 27.0 0.00 0.00 0.00 83 1006.3
20260507125535 60 186 9.0 27.0 0.00 0.00 0.00 83 1006.2
20260507125032 60 98 10.0 27.0 0.00 0.00 0.00 83 1006.7
20260507124559 60 126 12.0 33.0 0.00 0.00 0.00 84 1006.3
20260507124031 59 136 14.0 33.0 0.00 0.00 0.00 84 1006.3
20260507123531 59 218 10.0 23.0 0.00 0.00 0.00 85 1006.3
20260507123102 59 105 13.0 26.0 0.00 0.00 0.00 86 1006.5
20260507122530 59 158 12.0 26.0 0.00 0.00 0.00 87 1006.7
20260507122033 59 145 12.0 26.0 0.00 0.00 0.00 88 1006.9
20260507121555 59 188 12.0 24.0 0.00 0.00 0.00 89 1006.9
20260507121031 58 62 10.0 24.0 0.00 0.00 0.00 89 1006.7
20260507120538 58 99 10.0 24.0 0.00 0.00 0.00 89 1006.6
20260507120046 58 165 12.0 26.0 0.00 0.00 0.00 90 1006.6
20260507115531 58 242 11.0 26.0 0.00 0.00 0.00 91 1006.4
20260507115034 57 127 13.0 26.0 0.00 0.00 0.00 91 1006.3
20260507114545 57 190 10.0 24.0 0.00 0.00 0.00 92 1006.4
20260507114032 57 111 11.0 24.0 0.00 0.00 0.00 92 1006.7
20260507113532 57 153 12.0 32.0 0.00 0.00 0.00 92 1007.1
20260507113046 57 163 13.0 32.0 0.00 0.00 0.00 93 1007.1
20260507112531 57 139 14.0 32.0 0.00 0.00 0.00 92 1007.2
20260507112031 56 136 11.0 25.0 0.00 0.00 0.00 92 1007.2
20260507111549 56 161 11.0 24.0 0.00 0.00 0.00 92 1007.6
20260507111030 56 186 11.0 24.0 0.00 0.00 0.00 92 1008.0
20260507110533 56 101 11.0 22.0 0.00 0.00 0.00 91 1008.1
20260507110047 57 158 12.0 22.0 0.00 0.00 0.00 91 1008.2
20260507105531 57 139 9.0 21.0 0.00 0.00 0.00 91 1008.3
20260507105031 57 169 8.0 21.0 0.00 0.00 0.00 91 1008.5
20260507104553 57 147 7.0 19.0 0.00 0.00 0.00 91 1008.5
20260507104031 57 181 10.0 19.0 0.00 0.00 0.00 91 1008.3
20260507103531 57 118 8.0 17.0 0.00 0.00 0.00 91 1008.2
20260507103043 56 169 8.0 20.0 0.00 0.00 0.00 91 1008.0
20260507102531 56 113 10.0 20.0 0.00 0.00 0.00 92 1008.0
20260507102031 56 136 9.0 19.0 0.00 0.00 0.00 92 1008.5
20260507101550 56 128 8.0 19.0 0.00 0.00 0.00 92 1008.3
20260507101031 55 144 8.0 20.0 0.00 0.00 0.00 92 1008.4
20260507100530 55 108 8.0 20.0 0.00 0.00 0.00 92 1008.5
20260507100054 55 143 7.0 19.0 0.00 0.00 0.00 93 1008.6
20260507095532 55 152 8.0 17.0 0.00 0.00 0.00 93 1008.8
20260507095031 55 103 7.0 14.0 0.00 0.00 0.00 93 1009.0
20260507094547 54 267 7.0 14.0 0.00 0.00 0.00 93 1009.3
20260507094030 54 131 6.0 14.0 0.00 0.00 0.00 93 1009.4
20260507093533 54 120 7.0 17.0 0.00 0.00 0.00 93 1009.4
20260507093047 55 124 8.0 17.0 0.00 0.00 0.00 93 1009.4
20260507092535 55 70 7.0 19.0 0.00 0.00 0.00 93 1009.0
20260507092036 55 129 8.0 19.0 0.00 0.00 0.00 93 1009.2
20260507091544 55 147 8.0 17.0 0.00 0.00 0.00 92 1009.5
20260507091033 55 109 7.0 18.0 0.00 0.00 0.00 92 1009.1
20260507090532 55 135 11.0 18.0 0.00 0.00 0.00 93 1009.5
20260507090050 55 146 8.0 17.0 0.00 0.00 0.00 93 1009.7
20260507085533 54 141 6.0 15.0 0.00 0.00 0.00 93 1009.5
20260507085033 54 141 6.0 15.0 0.00 0.00 0.00 93 1010.0
20260507084546 54 136 7.0 15.0 0.00 0.00 0.00 93 1010.1
20260507084032 54 102 6.0 15.0 0.00 0.00 0.00 93 1010.1
20260507083532 54 125 5.0 12.0 0.00 0.00 0.00 93 1010.0
20260507083054 53 127 5.0 13.0 0.00 0.00 0.00 92 1009.8
20260507082533 53 117 6.0 13.0 0.00 0.00 0.00 92 1010.2
20260507082032 53 121 6.0 13.0 0.00 0.00 0.00 92 1010.1
20260507081556 53 110 6.0 18.0 0.00 0.00 0.00 92 1009.9
20260507081033 53 62 7.0 18.0 0.00 0.00 0.00 92 1010.3
20260507080532 53 148 7.0 20.0 0.00 0.00 0.00 92 1010.2
20260507080043 53 137 7.0 20.0 0.00 0.00 0.00 92 1009.8
20260507075535 53 147 12.0 20.0 0.00 0.00 0.00 91 1009.5
20260507075033 53 200 9.0 18.0 0.00 0.00 0.00 91 1009.6
20260507074541 54 125 8.0 18.0 0.00 0.00 0.00 90 1009.9
20260507074032 54 144 8.0 18.0 0.00 0.00 0.00 90 1010.2
20260507073532 54 122 8.0 18.0 0.00 0.00 0.00 90 1010.1
20260507073054 54 125 7.0 15.0 0.00 0.00 0.00 90 1010.3
20260507072536 54 120 8.0 17.0 0.00 0.00 0.00 90 1010.6
20260507072036 54 108 10.0 19.0 0.00 0.00 0.00 90 1010.8
20260507071539 54 114 9.0 19.0 0.00 0.00 0.00 90 1011.1
20260507071032 54 130 8.0 15.0 0.00 0.00 0.00 89 1010.9
20260507070532 54 168 6.0 17.0 0.00 0.00 0.00 89 1011.2
20260507070043 54 174 7.0 19.0 0.00 0.00 0.00 89 1011.4
20260507065532 54 129 9.0 19.0 0.00 0.00 0.00 89 1011.4
20260507065033 54 199 8.0 19.0 0.00 0.00 0.00 88 1011.5
20260507064545 54 145 10.0 22.0 0.00 0.00 0.00 88 1011.1
20260507064033 55 171 9.0 22.0 0.00 0.00 0.00 88 1011.3
20260507063534 55 135 11.0 20.0 0.00 0.00 0.00 88 1011.2
20260507063047 54 110 8.0 20.0 0.00 0.00 0.00 87 1011.2
20260507062532 54 119 8.0 23.0 0.00 0.00 0.00 87 1011.5
20260507062033 55 147 10.0 23.0 0.00 0.00 0.00 86 1011.6
20260507061540 55 167 10.0 23.0 0.00 0.00 0.00 86 1011.5
20260507061033 55 135 7.0 22.0 0.00 0.00 0.00 85 1011.3
20260507060532 55 140 8.0 22.0 0.00 0.00 0.00 85 1011.5
20260507060048 55 155 8.0 20.0 0.00 0.00 0.00 84 1011.4
20260507055532 55 83 10.0 21.0 0.00 0.00 0.00 84 1011.2
20260507055033 56 139 10.0 21.0 0.00 0.00 0.00 84 1011.6
20260507054545 55 140 10.0 20.0 0.00 0.00 0.00 84 1011.6
20260507054036 55 234 8.0 20.0 0.00 0.00 0.00 83 1011.8
20260507053532 55 138 11.0 17.0 0.00 0.00 0.00 83 1011.8
20260507053045 55 173 8.0 17.0 0.00 0.00 0.00 82 1011.9
20260507052532 55 127 8.0 16.0 0.00 0.00 0.00 82 1012.1
20260507052032 55 131 8.0 21.0 0.00 0.00 0.00 82 1012.4
20260507051545 55 113 11.0 21.0 0.00 0.00 0.00 81 1012.5
20260507051032 55 146 8.0 17.0 0.00 0.00 0.00 81 1012.9
20260507050532 55 113 8.0 17.0 0.00 0.00 0.00 81 1013.0
20260507050049 55 113 7.0 16.0 0.00 0.00 0.00 81 1013.1
20260507045534 55 117 8.0 16.0 0.00 0.00 0.00 81 1013.2
20260507045034 56 139 8.0 21.0 0.00 0.00 0.00 81 1013.4
20260507044543 56 172 8.0 21.0 0.00 0.00 0.00 80 1013.5
20260507044032 56 157 7.0 17.0 0.00 0.00 0.00 80 1013.6
20260507043532 56 84 10.0 17.0 0.00 0.00 0.00 80 1013.6
20260507043049 56 131 10.0 20.0 0.00 0.00 0.00 80 1013.7
20260507042533 56 176 10.0 20.0 0.00 0.00 0.00 80 1013.9
20260507042034 56 139 9.0 17.0 0.00 0.00 0.00 81 1014.0
20260507041548 56 205 8.0 17.0 0.00 0.00 0.00 81 1014.0
20260507041033 56 150 10.0 18.0 0.00 0.00 0.00 80 1014.1
20260507040532 56 142 9.0 18.0 0.00 0.00 0.00 80 1014.2
20260507040043 56 103 9.0 19.0 0.00 0.00 0.00 80 1014.4
20260507035532 56 101 9.0 19.0 0.00 0.00 0.00 80 1014.5
20260507035036 56 136 8.0 17.0 0.00 0.00 0.00 80 1014.7
20260507034541 56 156 10.0 17.0 0.00 0.00 0.00 80 1015.1
20260507034032 56 127 9.0 17.0 0.00 0.00 0.00 80 1015.1
20260507033532 56 139 8.0 17.0 0.00 0.00 0.00 79 1015.1
20260507033047 56 167 9.0 17.0 0.00 0.00 0.00 79 1015.1
20260507032533 56 153 9.0 17.0 0.00 0.00 0.00 80 1015.3
20260507032032 56 150 9.0 15.0 0.00 0.00 0.00 80 1015.3
20260507031544 56 121 8.0 17.0 0.00 0.00 0.00 80 1015.4
20260507031035 56 118 7.0 17.0 0.00 0.00 0.00 80 1015.7
20260507030533 56 148 9.0 17.0 0.00 0.00 0.00 80 1015.7
20260507030047 56 162 7.0 16.0 0.00 0.00 0.00 80 1015.8
20260507025533 56 148 7.0 16.0 0.00 0.00 0.00 80 1015.9
20260507025034 56 203 7.0 16.0 0.00 0.00 0.00 80 1015.9
20260507024554 56 152 6.0 14.0 0.00 0.00 0.00 81 1016.0
20260507024034 56 217 8.0 13.0 0.00 0.00 0.00 81 1016.0
20260507023541 56 46 6.0 13.0 0.00 0.00 0.00 81 1016.2
20260507023042 56 150 7.0 13.0 0.00 0.00 0.00 81 1016.2
20260507022532 56 128 7.0 15.0 0.00 0.00 0.00 81 1016.3
20260507022032 56 139 6.0 15.0 0.00 0.00 0.00 81 1016.3
20260507021544 56 26 5.0 14.0 0.00 0.00 0.00 81 1016.3
20260507021033 56 148 7.0 14.0 0.00 0.00 0.00 81 1016.5
20260507020532 56 145 4.0 10.0 0.00 0.00 0.00 81 1016.5
20260507020103 56 144 5.0 12.0 0.00 0.00 0.00 81 1016.5
20260507015532 56 133 3.0 12.0 0.00 0.00 0.00 81 1016.6
20260507015033 56 146 6.0 12.0 0.00 0.00 0.00 81 1016.5
20260507014602 56 106 6.0 12.0 0.00 0.00 0.00 81 1016.5
20260507014032 56 108 5.0 12.0 0.00 0.00 0.00 81 1016.6
20260507013532 56 103 5.0 12.0 0.00 0.00 0.00 81 1016.5
20260507013048 56 147 4.0 12.0 0.00 0.00 0.00 81 1016.6
20260507012535 57 148 4.0 10.0 0.00 0.00 0.00 80 1016.7
20260507012033 57 118 3.0 9.0 0.00 0.00 0.00 80 1016.7
20260507011540 57 161 4.0 11.0 0.00 0.00 0.00 80 1016.7
20260507011033 57 135 4.0 11.0 0.00 0.00 0.00 80 1016.8
20260507010533 57 165 5.0 11.0 0.00 0.00 0.00 80 1016.8
20260507010043 57 141 5.0 12.0 0.00 0.00 0.00 79 1016.8
20260507005532 57 113 4.0 12.0 0.00 0.00 0.00 79 1016.8
20260507005033 57 131 4.0 11.0 0.00 0.00 0.00 79 1017.0
20260507004545 57 157 7.0 11.0 0.00 0.00 0.00 79 1017.0
20260507004032 57 124 5.0 11.0 0.00 0.00 0.00 79 1017.0
20260507003532 57 127 4.0 11.0 0.00 0.00 0.00 78 1017.1
20260507003044 58 146 6.0 11.0 0.00 0.00 0.00 78 1017.1
20260507002532 58 158 4.0 10.0 0.00 0.00 0.00 78 1017.1
20260507002033 58 150 4.0 12.0 0.00 0.00 0.00 77 1017.0
20260507001539 58 132 6.0 13.0 0.00 0.00 0.00 77 1017.0
20260507001033 58 284 6.0 13.0 0.00 0.00 0.00 77 1017.0
20260507000532 59 150 4.0 13.0 0.00 0.00 0.00 77 1017.0
20260507000046 59 143 7.0 13.0 0.00 0.00 0.00 76 1016.9
20260506235534 59 134 5.0 15.0 0.00 0.00 0.00 76 1017.0
20260506235035 59 154 8.0 15.0 0.00 0.00 0.00 76 1017.0
20260506234550 59 189 6.0 15.0 0.00 0.00 0.00 75 1016.8
20260506234032 60 151 4.0 12.0 0.00 0.00 0.00 75 1016.8
20260506233532 60 159 3.0 14.0 0.00 0.00 0.00 74 1016.7
20260506233040 60 166 4.0 14.0 0.00 0.00 0.00 74 1016.6
20260506232532 61 204 7.0 14.0 0.00 0.00 0.00 73 1016.4
20260506232034 61 186 6.0 13.0 0.00 0.00 0.00 73 1016.3
20260506231556 61 151 5.0 13.0 0.00 0.00 0.00 72 1016.3
20260506231032 62 151 5.0 12.0 0.00 0.00 0.00 71 1016.3
20260506230532 62 119 5.0 13.0 0.00 0.00 0.00 71 1016.2
20260506230055 62 161 5.0 13.0 0.00 0.00 0.00 70 1016.1
20260506225535 63 165 5.0 13.0 0.00 0.00 0.00 69 1016.0
20260506225032 63 122 3.0 16.0 0.00 0.00 0.00 68 1015.9
20260506224544 64 139 6.0 19.0 0.00 0.00 0.00 67 1015.8
20260506224034 64 145 7.0 19.0 0.00 0.00 0.00 65 1015.7
20260506223534 64 136 7.0 18.0 0.00 0.00 0.00 65 1015.7
20260506223054 64 252 8.0 19.0 0.00 0.00 0.00 64 1015.7
20260506222532 65 186 9.0 19.0 0.00 0.00 0.00 63 1015.6
20260506222031 65 174 7.0 18.0 0.00 0.00 0.00 63 1015.7
20260506221545 65 143 7.0 20.0 0.00 0.00 0.00 62 1015.7
20260506221036 65 214 6.0 22.0 0.00 0.00 0.00 62 1015.6
20260506220535 65 191 9.0 22.0 0.00 0.00 0.00 61 1015.6
20260506220044 65 248 11.0 22.0 0.00 0.00 0.00 61 1015.7
20260506215536 66 130 6.0 20.0 0.00 0.00 0.00 61 1015.8
20260506215031 66 164 10.0 21.0 0.00 0.00 0.00 61 1015.7
20260506214540 66 173 11.0 21.0 0.00 0.00 0.00 60 1015.6
20260506214031 66 60 9.0 18.0 0.00 0.00 0.00 60 1015.6
20260506213534 66 231 7.0 18.0 0.00 0.00 0.00 60 1015.6
20260506213103 66 221 11.0 18.0 0.00 0.00 0.00 60 1015.4
20260506212532 67 120 8.0 24.0 0.00 0.00 0.00 60 1015.5
20260506212035 67 198 8.0 24.0 0.00 0.00 0.00 60 1015.4